全部
Gayndah Hospital Airport YXGI 天气
There is no TAF data available at YXGI or any nearby airports.
There is no METAR data available at YXGI. Showing METAR data for YGAY (2 mi NE).
GAH近期METAR历史数据(YXGI无数据)
| Date | Time (AEST) | Flight Rules | Wind Dir. | Speed | Type | Height AGL (ft) | Visibility | Temp (°C) | Temp (°F) | Dew Point (°C) | Dew Point (°F) | Rel. Humid. | Pressure | Density Altitude | Remarks |
|---|---|---|---|---|---|---|---|---|---|---|---|---|---|---|---|
| 05-五月 | 21:00 | n/a | Calm | Missing | 20° | 68° | 17° | 62° | 83% | 1017 mb | 857 ft | ||||
| 05-五月 | 20:00 | n/a | Calm | Missing | 21° | 69° | 18° | 64° | 83% | 1016 mb | 1,007 ft | ||||
| 05-五月 | 19:00 | n/a | Calm | Missing | 21° | 69° | 17° | 62° | 78% | 1016 mb | 1,007 ft | ||||
| 05-五月 | 18:00 | n/a | 200° | 2 kt | Missing | 22° | 71° | 18° | 64° | 78% | 1015 mb | 1,156 ft | |||
| 05-五月 | 17:00 | n/a | Calm | Missing | 25° | 77° | 18° | 64° | 65% | 1014 mb | 1,546 ft | ||||
| 05-五月 | 16:00 | n/a | 280° | 4 kt | Missing | 26° | 78° | 18° | 64° | 61% | 1014 mb | 1,666 ft | |||
| 05-五月 | 15:00 | n/a | 260° | 4 kt | Missing | 27° | 80° | 18° | 64° | 58% | 1014 mb | 1,786 ft | |||
| 05-五月 | 14:00 | n/a | 240° | 3 kt | Missing | 28° | 82° | 17° | 62° | 51% | 1014 mb | 1,906 ft | |||
| 05-五月 | 13:00 | n/a | 60° | 3 kt | Missing | 27° | 80° | 17° | 62° | 54% | 1015 mb | 1,756 ft | |||
| 05-五月 | 12:00 | n/a | 280° | 3 kt | Missing | 26° | 78° | 18° | 64° | 61% | 1016 mb | 1,607 ft | |||
| 05-五月 | 11:00 | n/a | 200° | 3 kt | Missing | 25° | 77° | 18° | 64° | 65% | 1016 mb | 1,487 ft | |||
| 05-五月 | 10:00 | n/a | 230° | 3 kt | Missing | 24° | 75° | 19° | 66° | 74% | 1017 mb | 1,337 ft | |||
| 05-五月 | 09:00 | n/a | 270° | 3 kt | Missing | 21° | 69° | 18° | 64° | 83% | 1018 mb | 947 ft | |||
| 05-五月 | 08:00 | n/a | Calm | Missing | 17° | 62° | 17° | 62° | 100% | 1018 mb | 467 ft | ||||
| 05-五月 | 07:00 | n/a | Calm | Missing | 15° | 59° | 14° | 57° | 94% | 1017 mb | 257 ft | ||||
| 05-五月 | 06:00 | n/a | 240° | 1 kt | Missing | 14° | 57° | 14° | 57° | 100% | 1017 mb | 137 ft | |||
| 05-五月 | 05:00 | n/a | 230° | 2 kt | Missing | 14° | 57° | 14° | 57° | 100% | 1016 mb | 167 ft | |||
| 05-五月 | 04:00 | n/a | 210° | 1 kt | Missing | 14° | 57° | 14° | 57° | 100% | 1016 mb | 167 ft | |||
| 05-五月 | 03:00 | n/a | Calm | Missing | 14° | 57° | 14° | 57° | 100% | 1016 mb | 167 ft | ||||
| 05-五月 | 02:00 | n/a | Calm | Missing | 15° | 59° | 15° | 59° | 100% | 1016 mb | 287 ft | ||||
| 05-五月 | 01:00 | n/a | Calm | Missing | 15° | 59° | 15° | 59° | 100% | 1017 mb | 257 ft | ||||
| 05-五月 | 00:00 | n/a | 280° | 2 kt | Missing | 15° | 59° | 15° | 59° | 100% | 1017 mb | 257 ft | |||
| 04-五月 | 23:00 | n/a | 10° | 2 kt | Missing | 16° | 60° | 15° | 59° | 94% | 1017 mb | 377 ft | |||
| 04-五月 | 22:00 | n/a | Calm | Missing | 17° | 62° | 16° | 60° | 94% | 1017 mb | 497 ft |
登录
| 您的浏览器不支持. 升级您的浏览器 |
